Tracking 35331 objects as of 15-Sep-2026
HD Live streaming from Space Station
objects crossing your sky now

COSMOS 1376 DEB


COSMOS 1376 DEB is no longer on orbit


NORAD ID: 13289
Int'l Code: 1982-056D
Launch date: June 8, 1982
Source: Commonwealth of Independent States (former USSR) (CIS)
Launch site: PLESETSK MISSILE AND SPACE COMPLEX (PKMTR)
Decay date: 1982-06-29

Note: This is SATELLITE DEBRIS
Your satellite tracking list
Your tracking list is empty




NASA's NSSDC Master Catalog

Two Line Element Set (TLE):
1 13289U 82056  D 82179.80904045  .15160676 -98473-5 +40857-3 0  9997
2 13289 082.3585 015.4160 0018656 264.0882 122.7016 16.43783893003306
Source of the keplerian elements: AFSPC